Showing default

RASSVET-3 12, 68371

Orbit data source: Space-Track

RASSVET-3 12, 68371 is a payload satellite owned by Byuro 1440 (CIS) in LEO that was launched on Mon, 23 Mar 2026 UTC via a SOYUZ-2-1B launch vehicle from the Plesetsk Missile And Space Complex (PKMTR). Payload-class satellites include a variety of spacecraft equipped with specific instruments for various scientific and technological missions. These include communications satellites like Starlink; space stations such as the ISS; scientific satellites like the Hubble; Earth observation satellites from companies like Planet Labs, Umbra, and HawkEye 360; GPS; miniature CubeSats for education and research; and military/defense satellites.

Loading next visibility...
Identifier
68371, 2026-061M
Orbit
LEO
Country
Flag of CISCIS
Related business
Manufacturer
Byuro 1440
Mission
Operational spacecraft
Bus & Motor
RASSVET-2, Unknown motor
Mass
~370 kg wet, ~370 kg dry
Launch date (UTC)
2026-03-23 (3 months ago)
Launch vehicle
SOYUZ-2-1B
Launch site
Plesetsk Missile And Space Complex (PKMTR)
Object type
Payload
Rocket body
Debris
Shape & HBR
Unknown shape, 1.9 m
Radar Cross Section
Large (>1 m²)

Expand to show TLE details & history
Last TLE update: 8 hours ago

TLE from 8 hours ago
0 RASSVET-3 12
1 68371U 26061M   26169.89797544  .00093955  00000-0  52488-2 0  9997
2 68371  82.2908  12.8161 0001604 203.3193 156.7965 15.13078192 13670
Epoch: 2026-06-18T21:33Z
TLE epoch observation values (Epoch: 2026-06-18T21:33:05.078Z)
Latitude
Longitude
142.41024°
Altitude
530.91 km
Speed
7.597 km/s
True Right ascension
00h 51m 15s
True Declination
0° 00' 00"
Sunlit
Object was in daylight at epoch
Visualization orbit readout
Latitude
Unknown
Longitude
Unknown
Altitude
Unknown
Speed
Unknown
Apparent Right ascension
Unknown
Apparent Declination
Unknown
Sunlit
N/A
Visualization observer readout
Local Sidereal Time
16:37:11
Azimuth
Unknown
Elevation
Unknown
Doppler factor
Unknown
Orbital elements
Apogee altitude
524.915 km
Perigee altitude
522.7 km
Semi-major axis
6,901.944 km
Eccentricity
0.00016
Inclination
82.2908°
RAAN
12.8161°
Arg. of periapsis
203.3193°
True anomaly
156.80374°
Mean anomaly
156.7965°
Eccentric anomaly
156.80012°
Mean motion
3.78518 °/min
Orbital period
95.11 mins
BSTAR
0.0052488
Loading maneuver chart data...
Computing Atmospheric mass density...
Loading historical data...
Loading historical data...
Loading historical data...
Loading historical data...
Loading historical data...
Loading historical data...
Loading historical data...

Documentation

Showing up to 5 results
|